timestamp,wind_dir_avg,wind_spd_avg,wind_spd_max_dir,wind_spd_gust,battery_voltage,lat,long
2022-09-21 00:04:00+00:00,219.0,0.67,230.0,0.77,12.57,47.59359,-54.27349
2022-09-21 00:14:01+00:00,159.0,0.66,141.0,0.8,12.57,47.59359,-54.27349
2022-09-21 00:24:01+00:00,128.0,0.94,134.0,1.29,12.57,47.59359,-54.27349
2022-09-21 00:34:01+00:00,110.0,1.97,108.0,2.47,12.57,47.59359,-54.27349
2022-09-21 00:44:01+00:00,72.0,0.58,67.0,0.81,12.57,47.59359,-54.27349
2022-09-21 00:54:01+00:00,114.0,1.41,104.0,2.05,12.57,47.59359,-54.27349
2022-09-21 01:04:01+00:00,90.0,1.25,82.0,1.63,12.57,47.59359,-54.27349
2022-09-21 01:14:01+00:00,123.0,2.18,119.0,2.64,12.57,47.59359,-54.27349
2022-09-21 01:24:01+00:00,101.0,1.22,96.0,2.03,12.57,47.59359,-54.27349
2022-09-21 01:34:01+00:00,150.0,2.32,139.0,2.75,12.57,47.59359,-54.27349
2022-09-21 01:44:01+00:00,150.0,2.2,157.0,2.6,12.57,47.59359,-54.27349
2022-09-21 01:54:01+00:00,161.0,3.19,159.0,3.65,12.57,47.59359,-54.27349
2022-09-21 02:04:01+00:00,167.0,3.83,163.0,4.34,12.57,47.59359,-54.27349
2022-09-21 02:14:00+00:00,172.0,3.6,173.0,4.1,12.57,47.59359,-54.27349
2022-09-21 02:24:00+00:00,178.0,3.07,173.0,3.44,12.57,47.59359,-54.27349
2022-09-21 02:34:00+00:00,176.0,2.27,182.0,2.6,12.57,47.59359,-54.27349
2022-09-21 02:44:00+00:00,179.0,2.42,179.0,2.79,12.57,47.59359,-54.27349
2022-09-21 02:54:00+00:00,178.0,2.22,173.0,2.44,12.57,47.59359,-54.27349
2022-09-21 03:04:00+00:00,162.0,1.47,173.0,1.75,12.57,47.59359,-54.27349
2022-09-21 03:14:00+00:00,141.0,1.55,130.0,1.74,12.49,47.59359,-54.27349
2022-09-21 03:24:00+00:00,102.0,0.91,77.0,1.42,12.49,47.59359,-54.27349
2022-09-21 03:34:00+00:00,127.0,0.65,134.0,0.86,12.49,47.59359,-54.27349
2022-09-21 03:44:00+00:00,94.0,0.83,113.0,1.11,12.49,47.59359,-54.27349
2022-09-21 03:54:00+00:00,24.0,2.72,26.0,3.29,12.49,47.59359,-54.27349
2022-09-21 04:04:00+00:00,24.0,3.18,26.0,3.6,12.49,47.59359,-54.27349
2022-09-21 04:14:01+00:00,17.0,2.97,13.0,3.39,12.49,47.59359,-54.27349
2022-09-21 04:24:01+00:00,24.0,3.15,23.0,3.43,12.49,47.59359,-54.27349
2022-09-21 04:34:01+00:00,22.0,2.85,27.0,3.17,12.49,47.59359,-54.27349
2022-09-21 04:44:01+00:00,23.0,2.91,22.0,3.35,12.49,47.59359,-54.27349
2022-09-21 04:54:01+00:00,19.0,2.98,22.0,3.3,12.49,47.59359,-54.27349
2022-09-21 05:04:01+00:00,18.0,3.51,19.0,3.84,12.49,47.59359,-54.27349
2022-09-21 05:14:00+00:00,16.0,3.25,22.0,3.86,12.49,47.59359,-54.27349
2022-09-21 05:24:00+00:00,14.0,2.92,20.0,3.29,12.49,47.59359,-54.27349
2022-09-21 05:34:00+00:00,9.0,3.31,10.0,3.68,12.49,47.59359,-54.27349
2022-09-21 05:44:00+00:00,350.0,3.34,348.0,3.66,12.49,47.59359,-54.27349
2022-09-21 05:54:00+00:00,4.0,2.67,5.0,3.11,12.49,47.59359,-54.27349
2022-09-21 06:04:00+00:00,19.0,2.38,22.0,2.82,12.49,47.59359,-54.27349
2022-09-21 06:14:00+00:00,1.0,2.69,13.0,3.25,12.41,47.59359,-54.27349
2022-09-21 06:24:00+00:00,16.0,2.47,15.0,2.88,12.41,47.59359,-54.27349
2022-09-21 06:34:00+00:00,25.0,2.21,18.0,2.61,12.41,47.59359,-54.27349
2022-09-21 06:44:00+00:00,16.0,2.35,10.0,2.7,12.41,47.59359,-54.27349
2022-09-21 06:54:00+00:00,20.0,2.48,18.0,3.04,12.41,47.59359,-54.27349
2022-09-21 07:04:00+00:00,22.0,2.3,22.0,2.64,12.41,47.59359,-54.27349
2022-09-21 07:14:01+00:00,17.0,2.71,19.0,3.0,12.41,47.59359,-54.27349
2022-09-21 07:24:01+00:00,15.0,2.46,21.0,2.85,12.41,47.59359,-54.27349
2022-09-21 07:34:01+00:00,8.0,2.43,11.0,2.88,12.41,47.59359,-54.27349
2022-09-21 07:44:01+00:00,356.0,2.9,355.0,3.28,12.41,47.59359,-54.27349
2022-09-21 07:54:01+00:00,4.0,2.92,10.0,3.16,12.41,47.59359,-54.27349
2022-09-21 08:04:01+00:00,17.0,2.9,15.0,3.29,12.41,47.59359,-54.27349
2022-09-21 08:14:01+00:00,6.0,3.33,6.0,3.59,12.41,47.59359,-54.27349
2022-09-21 08:24:01+00:00,9.0,3.46,16.0,3.72,12.41,47.59359,-54.27349
2022-09-21 08:34:01+00:00,12.0,3.57,4.0,4.03,12.41,47.59359,-54.27349
2022-09-21 08:44:01+00:00,17.0,3.21,17.0,3.54,12.41,47.59359,-54.27349
2022-09-21 08:54:01+00:00,19.0,3.21,17.0,3.88,12.41,47.59359,-54.27349
2022-09-21 09:04:01+00:00,21.0,3.53,26.0,3.84,12.41,47.59359,-54.27349
2022-09-21 09:14:01+00:00,22.0,3.85,19.0,4.3,12.33,47.59359,-54.27349
2022-09-21 09:24:01+00:00,11.0,3.09,18.0,3.73,12.33,47.59359,-54.27349
2022-09-21 09:34:01+00:00,29.0,2.82,32.0,3.52,12.33,47.59359,-54.27349
2022-09-21 09:44:01+00:00,110.0,1.82,121.0,2.38,12.33,47.59359,-54.27349
2022-09-21 09:54:01+00:00,212.0,1.29,224.0,1.85,12.33,47.59359,-54.27349
2022-09-21 10:04:01+00:00,158.0,1.61,145.0,2.0,12.33,47.59359,-54.27349
2022-09-21 10:14:00+00:00,152.0,2.37,150.0,2.94,13.29,47.59359,-54.27349
2022-09-21 10:24:00+00:00,130.0,2.22,132.0,2.53,13.29,47.59359,-54.27349
2022-09-21 10:34:00+00:00,117.0,2.04,123.0,2.55,13.29,47.59359,-54.27349
2022-09-21 10:44:00+00:00,126.0,2.25,129.0,2.62,13.29,47.59359,-54.27349
2022-09-21 10:54:00+00:00,142.0,3.18,154.0,3.82,13.29,47.59359,-54.27349
2022-09-21 11:04:00+00:00,154.0,5.13,150.0,5.71,13.29,47.59359,-54.27349
2022-09-21 11:14:01+00:00,160.0,4.94,160.0,5.27,13.84,47.59359,-54.27349
2022-09-21 11:24:01+00:00,156.0,4.78,153.0,5.6,13.84,47.59359,-54.27349
2022-09-21 11:34:01+00:00,160.0,5.31,161.0,5.79,13.84,47.59359,-54.27349
2022-09-21 11:44:01+00:00,143.0,4.02,141.0,4.34,13.84,47.59359,-54.27349
2022-09-21 11:54:01+00:00,154.0,4.4,149.0,5.32,13.84,47.59359,-54.27349
2022-09-21 12:04:01+00:00,149.0,5.48,148.0,5.96,13.84,47.59359,-54.27349
2022-09-21 12:14:00+00:00,152.0,4.84,156.0,5.77,14.32,47.59359,-54.27349
2022-09-21 12:24:00+00:00,159.0,6.47,159.0,7.19,14.32,47.59359,-54.27349
2022-09-21 12:34:00+00:00,154.0,6.81,159.0,7.77,14.32,47.59359,-54.27349
2022-09-21 12:44:00+00:00,151.0,6.49,151.0,7.27,14.32,47.59359,-54.27349
2022-09-21 12:54:00+00:00,153.0,6.44,150.0,7.16,14.32,47.59359,-54.27349
2022-09-21 13:04:00+00:00,156.0,6.46,156.0,6.87,14.32,47.59359,-54.27349
2022-09-21 13:14:01+00:00,151.0,5.24,155.0,5.94,14.24,47.59359,-54.27349
2022-09-21 13:24:01+00:00,144.0,4.9,145.0,6.08,14.24,47.59359,-54.27349
2022-09-21 13:34:01+00:00,150.0,5.95,149.0,7.02,14.24,47.59359,-54.27349
2022-09-21 13:44:01+00:00,149.0,6.68,149.0,7.24,14.24,47.59359,-54.27349
2022-09-21 13:54:01+00:00,163.0,6.55,165.0,7.72,14.24,47.59359,-54.27349
2022-09-21 14:04:01+00:00,163.0,5.62,163.0,6.29,14.24,47.59359,-54.27349
2022-09-21 14:14:00+00:00,144.0,4.57,141.0,5.88,13.92,47.59359,-54.27349
2022-09-21 14:24:00+00:00,132.0,4.65,131.0,6.4,13.92,47.59359,-54.27349
2022-09-21 14:34:00+00:00,140.0,7.14,143.0,7.84,13.92,47.59359,-54.27349
2022-09-21 14:44:00+00:00,143.0,5.88,150.0,6.91,13.92,47.59359,-54.27349
2022-09-21 14:54:00+00:00,167.0,6.29,168.0,7.47,13.92,47.59359,-54.27349
2022-09-21 15:04:00+00:00,174.0,7.52,177.0,8.26,13.92,47.59359,-54.27349
2022-09-21 15:14:01+00:00,155.0,6.12,151.0,7.72,13.68,47.59359,-54.27349
2022-09-21 15:24:01+00:00,153.0,6.62,150.0,7.95,13.68,47.59359,-54.27349
2022-09-21 15:34:01+00:00,167.0,5.8,173.0,6.67,13.68,47.59359,-54.27349
2022-09-21 15:44:01+00:00,166.0,5.4,170.0,6.28,13.68,47.59359,-54.27349
2022-09-21 15:54:01+00:00,170.0,6.59,169.0,7.73,13.68,47.59359,-54.27349
2022-09-21 16:04:01+00:00,173.0,6.41,179.0,7.45,13.68,47.59359,-54.27349
2022-09-21 16:14:01+00:00,182.0,5.66,178.0,6.39,13.84,47.59359,-54.27349
2022-09-21 16:24:01+00:00,165.0,5.21,166.0,5.69,13.84,47.59359,-54.27349
2022-09-21 16:34:01+00:00,153.0,5.7,149.0,6.39,13.84,47.59359,-54.27349
2022-09-21 16:44:01+00:00,171.0,5.92,164.0,6.62,13.84,47.59359,-54.27349
2022-09-21 16:54:01+00:00,182.0,4.65,180.0,5.14,13.84,47.59359,-54.27349
2022-09-21 17:04:01+00:00,200.0,5.37,202.0,5.89,13.84,47.59359,-54.27349
2022-09-21 17:14:00+00:00,201.0,5.23,207.0,6.11,13.76,47.59359,-54.27349
2022-09-21 17:24:00+00:00,186.0,4.71,186.0,5.52,13.76,47.59359,-54.27349
2022-09-21 17:34:00+00:00,199.0,7.27,202.0,8.07,13.76,47.59359,-54.27349
2022-09-21 17:44:00+00:00,204.0,7.19,208.0,7.97,13.76,47.59359,-54.27349
2022-09-21 17:54:00+00:00,206.0,6.92,204.0,7.61,13.76,47.59359,-54.27349
2022-09-21 18:04:00+00:00,199.0,7.34,202.0,8.96,13.76,47.59359,-54.27349
2022-09-21 18:14:01+00:00,203.0,7.13,210.0,8.11,13.84,47.59359,-54.27349
2022-09-21 18:24:01+00:00,197.0,6.16,208.0,7.0,13.84,47.59359,-54.27349
2022-09-21 18:34:01+00:00,184.0,5.88,185.0,6.42,13.84,47.59359,-54.27349
2022-09-21 18:44:01+00:00,194.0,6.46,199.0,7.48,13.84,47.59359,-54.27349
2022-09-21 18:54:01+00:00,184.0,6.15,188.0,6.82,13.84,47.59359,-54.27349
2022-09-21 19:04:01+00:00,181.0,7.83,183.0,8.54,13.84,47.59359,-54.27349
2022-09-21 19:14:00+00:00,180.0,7.97,183.0,8.86,13.68,47.59359,-54.27349
2022-09-21 19:24:00+00:00,169.0,7.23,170.0,8.18,13.68,47.59359,-54.27349
2022-09-21 19:34:00+00:00,165.0,6.91,166.0,7.71,13.68,47.59359,-54.27349
2022-09-21 19:44:00+00:00,171.0,7.38,173.0,8.79,13.68,47.59359,-54.27349
2022-09-21 19:54:00+00:00,173.0,6.85,174.0,7.83,13.68,47.59359,-54.27349
2022-09-21 20:04:00+00:00,172.0,9.06,170.0,10.21,13.68,47.59359,-54.27349
2022-09-21 20:14:00+00:00,172.0,7.76,175.0,9.38,13.37,47.59359,-54.27349
2022-09-21 20:24:00+00:00,176.0,8.18,175.0,8.97,13.37,47.59359,-54.27349
2022-09-21 20:34:00+00:00,175.0,8.04,174.0,9.25,13.37,47.59359,-54.27349
2022-09-21 20:44:00+00:00,172.0,7.72,175.0,8.76,13.37,47.59359,-54.27349
2022-09-21 20:54:00+00:00,166.0,6.12,176.0,6.74,13.37,47.59359,-54.27349
2022-09-21 21:04:00+00:00,164.0,6.32,170.0,7.51,13.37,47.59359,-54.27349
2022-09-21 21:14:01+00:00,165.0,6.51,165.0,7.93,13.13,47.59359,-54.27349
2022-09-21 21:24:01+00:00,169.0,6.41,169.0,7.17,13.13,47.59359,-54.27349
2022-09-21 21:34:01+00:00,173.0,7.27,177.0,8.22,13.13,47.59359,-54.27349
2022-09-21 21:44:01+00:00,174.0,7.44,167.0,8.35,13.13,47.59359,-54.27349
2022-09-21 21:54:01+00:00,173.0,7.08,176.0,8.31,13.13,47.59359,-54.27349
2022-09-21 22:04:01+00:00,169.0,6.92,167.0,7.53,13.13,47.59359,-54.27349
2022-09-21 22:14:00+00:00,174.0,7.58,176.0,8.32,12.65,47.59359,-54.27349
2022-09-21 22:24:00+00:00,170.0,8.51,176.0,9.9,12.65,47.59359,-54.27349
2022-09-21 22:34:00+00:00,172.0,8.0,174.0,8.94,12.65,47.59359,-54.27349
2022-09-21 22:44:00+00:00,164.0,6.74,166.0,7.31,12.65,47.59359,-54.27349
2022-09-21 22:54:00+00:00,159.0,8.01,157.0,9.32,12.65,47.59359,-54.27349
2022-09-21 23:04:00+00:00,167.0,7.15,167.0,8.06,12.65,47.59359,-54.27349
2022-09-21 23:14:00+00:00,167.0,6.56,175.0,7.73,12.57,47.59359,-54.27349
2022-09-21 23:24:00+00:00,165.0,6.74,160.0,9.14,12.57,47.59359,-54.27349
2022-09-21 23:34:00+00:00,151.0,7.86,146.0,9.26,12.57,47.59359,-54.27349
2022-09-21 23:44:00+00:00,156.0,6.25,151.0,7.87,12.57,47.59359,-54.27349
2022-09-21 23:54:00+00:00,167.0,6.21,171.0,7.05,12.57,47.59359,-54.27349
